Location: Bryzozowice
(50.3667°N, 18.9667°E)
Time: 16:07:20
(UTC+00:00)

Cosmos 1727 Rocket - Pass Details

Date: 24 January 2020
Orbit: 960 x 997 km, 82.9° (Epoch: 18 February)

Event Time Altitude Azimuth Distance (km) Brightness Sun altitude
Rises 17:08:03 0° 351° (N) 3,669 7.0 -16.5°
Reaches altitude 10° 17:10:35 10° 354° (N) 2,715 6.3 -16.9°
Maximum altitude 17:16:47 72° 78° (ENE) 1,014 3.9 -17.9°
Drops below altitude 10° 17:22:56 10° 163° (SSE) 2,689 6.2 -18.9°
Sets 17:25:26 0° 165° (SSE) 3,632 6.9 -19.3°
